Printer-friendly version

IAU Minor Planet Center

Minor Planet Center

MPEC 2003-E34 : 2003 EE16

The following Minor Planet Electronic Circular may be linked-to from your own Web pages, but must not otherwise be redistributed electronically.


Read MPEC 2003-E33 Read MPEC 2003-E35


M.P.E.C. 2003-E34                                Issued 2003 Mar.  9, 13:34 UT

     The Minor Planet Electronic Circulars contain information on unusual
         minor planets and routine data on comets.  They are published
   on behalf of Commission 20 of the International Astronomical Union by the
          Minor Planet Center, Smithsonian Astrophysical Observatory,
                          Cambridge, MA 02138, U.S.A.

             Prepared using the Tamkin Foundation Computer Network

                              MPC@CFA.HARVARD.EDU
          URL http://cfa-www.harvard.edu/iau/mpc.html  ISSN 1523-6714

                                   2003 EE16

Observations:
     K03E16E* C2003 03 08.31673 11 21 42.99 +05 14 18.0          20.9 V      291
     K03E16E  C2003 03 08.34070 11 21 39.46 +05 14 40.1          21.1 V      291
     K03E16E  C2003 03 08.36425 11 21 36.00 +05 15 02.0          20.8 V      291
     K03E16E  C2003 03 08.93446 11 20 15.50 +05 23 36.2                      246
     K03E16E  C2003 03 08.93536 11 20 15.28 +05 23 37.9                      246
     K03E16E  C2003 03 08.93618 11 20 15.20 +05 23 37.8                      246
     K03E16E  C2003 03 08.93716 11 20 15.07 +05 23 40.8                      246
     K03E16E  C2003 03 08.93804 11 20 14.90 +05 23 40.7                      246
     K03E16E  C2003 03 08.93990 11 20 14.66 +05 23 42.3                      246
     K03E16E  C2003 03 08.94179 11 20 14.42 +05 23 44.1                      246
     K03E16E  C2003 03 08.94285 11 20 14.28 +05 23 44.9                      246
     K03E16E  C2003 03 09.22440 11 19 34.86 +05 27 59.8          20.6 R      651
     K03E16E  C2003 03 09.22640 11 19 34.62 +05 28 02.7          20.6 R      651
     K03E16E  C2003 03 09.22838 11 19 34.31 +05 28 03.9          20.6 R      651
     K03E16E  C2003 03 09.23880 11 19 32.80 +05 28 12.3          19.6 R      858
     K03E16E  C2003 03 09.25235 11 19 30.86 +05 28 24.9          19.5 R      858
     K03E16E  C2003 03 09.31049 11 19 22.37 +05 29 18.0          19.8 R      448
     K03E16E  C2003 03 09.31096 11 19 22.33 +05 29 18.3          21.0 V      291
     K03E16E  C2003 03 09.31499 11 19 21.78 +05 29 21.9          20.7 V      291
     K03E16E  C2003 03 09.32006 11 19 20.98 +05 29 27.1          19.2 R      448
     K03E16E  C2003 03 09.32023 11 19 21.02 +05 29 26.6          20.9 V      291
     K03E16E  C2003 03 09.32963 11 19 19.66 +05 29 34.7          20.7 R      448
     K03E16E IC2003 03 09.33140 11 19 19.40 +05 29 38.4                      711
     K03E16E  C2003 03 09.33946 11 19 18.19 +05 29 43.1          19.9 R      711
     K03E16E  C2003 03 09.34752 11 19 17.00 +05 29 50.7          19.4 R      711
     K03E16E  C2003 03 09.35950 11 19 15.28 +05 30 02.1          19.6 R      926
     K03E16E  C2003 03 09.36214 11 19 15.08 +05 30 04.4          19.8 R      926
     K03E16E  C2003 03 09.36478 11 19 14.67 +05 30 05.3                      926
     K03E16E  C2003 03 09.45123 11 19 02.95 +05 31 37.6          19.7 R      474
     K03E16E  C2003 03 09.45296 11 19 02.74 +05 31 40.2          19.7 R      474
     K03E16E  C2003 03 09.45470 11 19 02.44 +05 31 40.3          20.0 R      474
     K03E16E  C2003 03 09.45649 11 19 02.24 +05 31 43.5          19.6 R      474
     K03E16E  C2003 03 09.45997 11 19 01.69 +05 31 46.1          19.8 R      474

Observer details:
246 Klet Observatory-KLENOT.  Observers J. Ticha, M. Tichy.  1.06-m KLENOT
    Telescope + CCD.
291 LPL/Spacewatch II.  Observer A. E. Gleason.  1.8-m f/2.7 reflector + CCD.
448 Desert Moon Observatory.  Observer B. Stevens.  0.3-m Schmidt-Cassegrain
    + CCD.
474 Mount John Observatory, Lake Tekapo.  Observers A. C. Gilmore,
    P. M. Kilmartin.  1.0-m f/7.7 reflector + CCD.
651 Grasslands Observatory, Tucson.  Observer J. E. McGaha.  0.62-m f/5.1
    Newtonian + CCD.
711 McDonald Observatory.  Observer P. J. Shelus.  0.76-m reflector with prime
    focus corrector + CCD.
858 Tebbutt Observatory, Edgewood.  Observer F. B. Zoltowski.  0.3-m f/8.2
    Schmidt-Cassegrain + CCD.
926 Tenagra II Observatory.  Observers P. R. Holvorcem, M. Schwartz.  0.81-m
    f/7 Ritchey-Chretien + CCD.

Orbital elements:
2003 EE16                                                            PHA 0.011
Epoch 2003 Mar. 2.0 TT = JDT 2452700.5                  MPC
M  75.92429              (2000.0)            P               Q
n   0.59965213     Peri.  257.65099     +0.91605639     -0.40094370
a   1.3927392      Node   125.98550     +0.37223745     +0.84147320
e   0.6235673      Incl.    0.65222     +0.14926476     +0.36216985
P   1.64           H   19.8           G   0.15
From 33 observations 2003 Mar. 8-9.

Ephemeris:
2003 EE16                a,e,i = 1.39, 0.62, 1                   q = 0.5243
Date    TT    R. A. (2000) Decl.     Delta      r     Elong.  Phase     V
2003 03 02    11 37.28   +03 33.2    0.703    1.684   167.5     7.3    20.7
2003 03 12    11 13.23   +06 08.4    0.760    1.752   175.8     2.4    20.7
2003 03 22    10 53.51   +08 09.7    0.845    1.815   160.6    10.5    21.4
2003 04 01    10 39.50   +09 31.3    0.955    1.874   147.0    16.9    22.0

Brian G. Marsden             (C) Copyright 2003 MPC           M.P.E.C. 2003-E34

Read MPEC 2003-E33 Read MPEC 2003-E35


Our Web policy. Index to the CBAT/MPC/ICQ pages.


Valid HTML 4.01!